Content
SEND FEEDBACK

Daily
Averages
Monthly
Summary
United States of America

ASHVILLE, NORTH CAROLINA


Home > North America > United States > North Carolina
Elevation: 2240 feet     Latitude: 35 36N     Longitude: 082 32W

WEATHER
 
SELECT A DAY
Number of Records: 226,720;   Date Range: 1/1/95 - 9/16/14
 
SHARE

PRINT THIS DATA

[ ← Previous Day ]
WEATHER ALMANAC - APRIL 21, 2013
[ Next Day → ]
[ °C ]   °F
Weather ElementAverageHighLow
Temperature47.3 °F60.1 °F (3:54 pm)33.1 °F (5:54 am)
Dewpoint31.5 °F37 °F (10:54 pm)26.1 °F (10:54 am)
Humidity59.3 %92 % (5:54 am)33 % (12:54 pm)
Barometer30.36 in30.42 in (8:54 am)30.29 in (1:54 am)
Wind Speed3.4 mph9.2 mph (6:54 pm)
Wind Gust19.6 mph (3:54 pm)
Weather ElementAverage
Visibility10 mi
Wind DirectionNE (40 °)

Weather ElementTotal
Precipitation---
Heating Degree Days18.4 (Base 65)
Averaged from 23 records on April 21, 2013
WEATHER CONDITIONS BREAKOUT
WIND DIRECTION BREAKOUT
WEATHER BY HOUR - APRIL 21, 2013
[ °C ]   °F
Local TimeTemperatureDewpointHumidityBarometerVisibilityWind DirectionWind SpeedGust SpeedPrecipitationEventsConditions
1:54 AM39.0 °F33.1 °F79 %30.29 in10.0 miCalmClear
2:54 AM37.0 °F32.0 °F82 %30.29 in10.0 miCalmClear
3:54 AM36.0 °F32.0 °F86 %30.30 in10.0 miCalmClear
4:54 AM34.0 °F30.9 °F89 %30.31 in10.0 miCalmClear
5:54 AM33.1 °F30.9 °F92 %30.34 in10.0 miCalmClear
6:54 AM33.1 °F30.9 °F92 %30.37 in10.0 miCalmClear
7:54 AM35.1 °F33.1 °F92 %30.40 in10.0 miCalmClear
8:54 AM39.0 °F35.1 °F86 %30.42 in10.0 miCalmClear
9:54 AM46.9 °F30.9 °F54 %30.42 in10.0 miSouth (190°)5.8 mphClear
10:54 AM53.1 °F26.1 °F35 %30.42 in10.0 miVariable4.6 mphClear
11:54 AM54.0 °F26.1 °F34 %30.41 in10.0 miVariable5.8 mphClear
12:54 PM55.9 °F27.0 °F33 %30.38 in10.0 miVariable6.9 mphClear
1:54 PM57.0 °F28.9 °F34 %30.37 in10.0 miSE (140°)5.8 mphClear
2:54 PM57.9 °F28.9 °F33 %30.36 in10.0 miEast (80°)8.1 mphClear
3:54 PM60.1 °F30.9 °F33 %30.34 in10.0 miVariable4.6 mph19.6 mphClear
4:54 PM59.0 °F30.9 °F35 %30.32 in10.0 miVariable6.9 mph16.1 mphClear
5:54 PM57.9 °F30.9 °F36 %30.33 in10.0 miSE (130°)8.1 mph18.4 mphClear
6:54 PM55.9 °F32.0 °F40 %30.34 in10.0 miSE (140°)9.2 mph17.3 mphClear
7:54 PM54.0 °F30.0 °F40 %30.36 in10.0 miESE (110°)8.1 mph17.3 mphClear
8:54 PM52.0 °F34.0 °F50 %30.39 in10.0 miSE (130°)4.6 mphClear
9:54 PM50.0 °F36.0 °F59 %30.40 in10.0 miCalmClear
10:54 PM46.0 °F37.0 °F71 %30.39 in10.0 miCalmClear
11:54 PM43.0 °F37.0 °F80 %30.39 in10.0 miCalmPartly Cloudy
Hourly data recorded from KAVL, located miles away from Ashville, North Carolina







STORIES FROM OUR PARTNERS